This demonstration page uses our WeatherBlox Daily Observations layout. Learn more.

Left ArrowRight Arrow

34.74481, -87.66753

Hourly Observations for March 5, 2021

Temp ( °F °C ) Dew Point ( °F °C ) Humidity (%) Winds ( mph kmh ) Pressure ( in mb ) Visibility ( mi km ) Precip ( " mm )
12:53 am 00:53 Clear 53 11.7 31 -0.6 43 43 ENE 6 9 30.08 1019 10 16 0.00 0.00
1:53 am 01:53 Clear 50 10 31 -0.6 48 48 ENE 5 7 30.08 1019 10 16 0.00 0.00
2:53 am 02:53 Clear 48 8.9 30 -1.1 50 50 ENE 3 6 30.09 1019 10 16 0.00 0.00
3:53 am 03:53 Clear 45 7.2 32 0 61 61 NE 5 7 30.11 1020 10 16 0.00 0.00
4:53 am 04:53 Clear 46 7.8 29 -1.7 51 51 Calm 30.12 1020 10 16 0.00 0.00
5:53 am 05:53 Clear 44 6.7 29 -1.7 55 55 NE 5 7 30.14 1021 10 16 0.00 0.00
6:53 am 06:53 Sunny 46 7.8 31 -0.6 56 56 ENE 7 11 30.14 1021 10 16 0.00 0.00
7:53 am 07:53 Sunny 49 9.4 29 -1.7 46 46 ENE 10 17 30.15 1021 10 16 0.00 0.00
8:53 am 08:53 Sunny 51 10.6 27 -2.8 39 39 E 10 17 30.17 1022 10 16 0.00 0.00
9:53 am 09:53 Sunny 55 12.8 25 -3.9 31 31 VRB 7 11 30.18 1022 10 16 0.00 0.00
10:53 am 10:53 Sunny 58 14.4 24 -4.4 27 27 N 8 13 30.17 1022 10 16 0.00 0.00
11:53 am 11:53 Sunny 59 15 25 -3.9 27 27 N 9 15 30.17 1022 10 16 0.00 0.00
12:53 pm 12:53 Sunny 56 13.3 25 -3.9 30 30 NNE 13 20 30.14 1021 10 16 0.00 0.00
1:53 pm 13:53 Sunny 57 13.9 21 -6.1 25 25 N 9 15 30.14 1021 10 16 0.00 0.00
2:53 pm 14:53 Sunny 55 12.8 22 -5.6 28 28 NNE 10 17 30.16 1021 10 16 0.00 0.00
3:53 pm 15:53 Sunny 52 11.1 21 -6.1 30 30 NNE 13 20 30.16 1021 10 16 0.00 0.00
4:53 pm 16:53 Mostly Cloudy 50 10 20 -6.7 30 30 NNE 10 17 30.16 1021 10 16 0.00 0.00
5:53 pm 17:53 Cloudy 50 10 20 -6.7 30 30 NNE 8 13 30.17 1022 10 16 0.00 0.00
6:53 pm 18:53 Cloudy 49 9.4 20 -6.7 32 32 ENE 10 17 30.17 1022 10 16 0.00 0.00
7:53 pm 19:53 Cloudy 48 8.9 20 -6.7 33 33 NE 12 19 30.18 1022 10 16 0.00 0.00
8:53 pm 20:53 Cloudy 48 8.9 21 -6.1 34 34 NNE 10 17 30.21 1023 10 16 0.00 0.00
9:53 pm 21:53 Mostly Cloudy 47 8.3 21 -6.1 36 36 NE 9 15 30.20 1023 10 16 0.00 0.00
10:53 pm 22:53 Mostly Cloudy 47 8.3 21 -6.1 36 36 NNE 9 15 30.20 1023 10 16 0.00 0.00
11:53 pm 23:53 Mostly Cloudy 46 7.8 20 -6.7 35 35 NE 10 17 30.19 1023 10 16 0.00 0.00

Powered by AerisWeather